Weather History for PARC - January, 2013

Change the Weather History Date:

Wednesday, January 16, 2013

  Actual Average Record
Temperature  
Mean Temperature -14 °F -  
Max Temperature -2 °F -25 °F 33 °F (2009)
Min Temperature -27 °F -43 °F -62 °F (1991)
Degree Days  
Heating Degree Days 80    
Moisture  
Dew Point -24 °F    
Average Humidity 65    
Maximum Humidity 100    
Minimum Humidity 8    
Precipitation  
Precipitation 0.00 in - - ()
Sea Level Pressure  
Sea Level Pressure 29.95 in    
Wind  
Wind Speed 0 mph (SW)    
Max Wind Speed 4 mph    
Max Gust Speed -    
Visibility 9 miles    
Events      
Averages and records for this station are not official NWS values.
T = Trace of Precipitation, MM = Missing Value Source: NWS Daily Summary

Daily Weather History Graph

Daily Weather History Graph

Search for Another Location

Airport or City:

Trip Planner

Search our weather history database for the weather conditions in past years. The results will help you decide how hot, cold, wet, or windy it might be!

Date:

Astronomy

Jan. 16, 2013 Rise Set
Actual Time 11:10 AM AKST 2:34 PM AKST
Civil Twilight 9:33 AM AKST 4:12 PM AKST
Nautical Twilight 8:13 AM AKST 5:31 PM AKST
Astronomical Twilight 7:05 AM AKST 6:39 PM AKST
Moon 10:13 AM AKST (1/16) No Moon Set
Length of Visible Light 6h 39m
Length of Day
3h 24m
Waxing Crescent, 29% of the Moon is Illuminated
Jan 16
Waxing Crescent
Jan 18
First Quarter
Jan 26
Full
Feb 3
Last Quarter
Feb 9
New

Hourly Weather History & Observations

Time (AKST) Temp. Windchill Dew Point Humidity Pressure Visibility Wind Dir Wind Speed Gust Speed Precip Events Conditions
12:16 AM -2.2 °F -10.4 °F -22.0 °F 39% 29.90 in 10.0 mi SW 3.5 mph - N/A   Mostly Cloudy
12:36 AM -5.8 °F - -5.8 °F 100% 29.91 in 10.0 mi Calm Calm - N/A   Mostly Cloudy
12:56 AM -7.6 °F - -23.8 °F 45% 29.92 in 10.0 mi Calm Calm - N/A   Overcast
1:16 AM -7.6 °F - - N/A% 29.93 in 10.0 mi Calm Calm - N/A   Scattered Clouds
1:36 AM -7.6 °F - -27.4 °F 38% 29.93 in 10.0 mi Calm Calm - N/A   Clear
1:56 AM -9.4 °F - -9.4 °F 100% 29.93 in 10.0 mi Calm Calm - N/A   Clear
2:16 AM -9.4 °F - -20.2 °F 59% 29.93 in 10.0 mi Calm Calm - N/A   Clear
3:16 AM -11.2 °F - -25.6 °F 49% 29.95 in 10.0 mi Calm Calm - N/A   Clear
3:36 AM -16.6 °F - -23.8 °F 70% 29.95 in 9.0 mi Calm Calm - N/A   Clear
3:56 AM -18.4 °F - -18.4 °F 100% 29.96 in 10.0 mi Calm Calm - N/A   Clear
4:16 AM -16.6 °F - -23.8 °F 70% 29.96 in 10.0 mi Calm Calm - N/A   Clear
4:36 AM -18.4 °F - - N/A% 29.96 in 10.0 mi Calm Calm - N/A   Clear
4:56 AM -18.4 °F - -23.8 °F 76% 29.96 in 9.0 mi Calm Calm - N/A   Mostly Cloudy
5:16 AM -16.6 °F - - N/A% 29.96 in 7.0 mi Calm Calm - N/A   Overcast
5:36 AM -18.4 °F - - N/A% 29.96 in 5.0 mi Calm Calm - N/A   Mostly Cloudy
5:56 AM -18.4 °F - - N/A% 29.96 in 7.0 mi Calm Calm - N/A   Partly Cloudy
6:16 AM -16.6 °F - -20.2 °F 84% 29.96 in 8.0 mi Calm Calm - N/A   Partly Cloudy
6:36 AM -22.0 °F - - N/A% 29.97 in 10.0 mi Calm Calm - N/A   Clear
6:56 AM -18.4 °F - -63.4 °F 8% 29.97 in 10.0 mi Calm Calm - N/A   Clear
7:16 AM -18.4 °F - - N/A% 29.97 in 10.0 mi Calm Calm - N/A   Clear
7:36 AM -20.2 °F - - N/A% 29.97 in 10.0 mi Calm Calm - N/A   Clear
7:56 AM -18.4 °F - - N/A% 29.97 in 10.0 mi Calm Calm - N/A   Clear
8:16 AM -20.2 °F - - N/A% 29.97 in 9.0 mi Calm Calm - N/A   Clear
8:36 AM -20.2 °F - - N/A% 29.97 in 10.0 mi Calm Calm - N/A   Mostly Cloudy
8:56 AM -22.0 °F - - N/A% 29.97 in 10.0 mi Calm Calm - N/A   Scattered Clouds
9:16 AM -20.2 °F - - N/A% 29.97 in 10.0 mi Calm Calm - N/A   Clear
9:36 AM -18.4 °F - - N/A% 29.97 in 10.0 mi Calm Calm - N/A   Clear
9:56 AM -20.2 °F - - N/A% 29.97 in 10.0 mi Calm Calm - N/A   Partly Cloudy
10:16 AM -23.8 °F - - N/A% 29.97 in 10.0 mi Calm Calm - N/A   Partly Cloudy
10:36 AM -20.2 °F - - N/A% 29.98 in 10.0 mi Calm Calm - N/A   Partly Cloudy
10:56 AM -18.4 °F - - N/A% 29.98 in 10.0 mi Calm Calm - N/A   Clear
11:16 AM -22.0 °F - -27.4 °F 76% 29.98 in 10.0 mi Calm Calm - N/A   Mostly Cloudy
11:36 AM -23.8 °F - - N/A% 29.98 in 10.0 mi Calm Calm - N/A   Mostly Cloudy
11:56 AM -20.2 °F - - N/A% 29.97 in 10.0 mi Calm Calm - N/A   Mostly Cloudy
12:16 PM -22.0 °F - - N/A% 29.98 in 9.0 mi Calm Calm - N/A   Overcast
12:36 PM -22.0 °F - - N/A% 29.98 in 8.0 mi Calm Calm - N/A   Overcast
12:56 PM -20.2 °F - - N/A% 29.98 in 10.0 mi Calm Calm - N/A   Overcast
1:16 PM -18.4 °F - - N/A% 29.98 in 8.0 mi Calm Calm - N/A   Overcast
1:36 PM -20.2 °F - - N/A% 29.98 in 8.0 mi Calm Calm - N/A   Overcast
1:56 PM -18.4 °F - - N/A% 29.97 in 10.0 mi Calm Calm - N/A   Overcast
2:16 PM -20.2 °F - - N/A% 29.97 in 10.0 mi Calm Calm - N/A   Scattered Clouds
2:36 PM -23.8 °F - - N/A% 29.97 in 10.0 mi Calm Calm - N/A   Clear
2:56 PM -22.0 °F - - N/A% 29.96 in 9.0 mi Calm Calm - N/A   Clear
3:16 PM -22.0 °F - - N/A% 29.96 in 8.0 mi Calm Calm - N/A   Clear
3:36 PM -23.8 °F - - N/A% 29.95 in 7.0 mi Calm Calm - N/A   Partly Cloudy
3:56 PM -23.8 °F - - N/A% 29.95 in 10.0 mi Calm Calm - N/A   Clear
4:16 PM -23.8 °F - - N/A% 29.95 in 10.0 mi Calm Calm - N/A   Clear
4:36 PM -23.8 °F - - N/A% 29.95 in 10.0 mi Calm Calm - N/A   Clear
4:56 PM -25.6 °F - - N/A% 29.94 in 10.0 mi Calm Calm - N/A   Partly Cloudy
5:16 PM -23.8 °F - - N/A% 29.94 in 9.0 mi Calm Calm - N/A   Partly Cloudy
5:36 PM -25.6 °F - - N/A% 29.94 in 7.0 mi Calm Calm - N/A   Clear
5:56 PM -23.8 °F - - N/A% 29.94 in 4.0 mi Calm Calm - N/A   Clear
6:16 PM -22.0 °F - - N/A% 29.94 in 10.0 mi Calm Calm - N/A   Clear
6:36 PM -23.8 °F - - N/A% 29.94 in 10.0 mi Calm Calm - N/A   Mostly Cloudy
6:56 PM -23.8 °F - - N/A% 29.94 in 10.0 mi Calm Calm - N/A   Partly Cloudy
7:16 PM -23.8 °F - - N/A% 29.94 in 10.0 mi Calm Calm - N/A   Partly Cloudy
7:36 PM -23.8 °F - - N/A% 29.95 in 10.0 mi Calm Calm - N/A   Partly Cloudy
7:56 PM -27.4 °F - - N/A% 29.95 in 10.0 mi Calm Calm - N/A   Scattered Clouds
8:16 PM -23.8 °F - - N/A% 29.94 in 10.0 mi Calm Calm - N/A   Mostly Cloudy
8:36 PM -22.0 °F - - N/A% 29.94 in 10.0 mi Calm Calm - N/A   Partly Cloudy
8:56 PM -25.6 °F - - N/A% 29.94 in 8.0 mi Calm Calm - N/A   Clear
9:16 PM -25.6 °F - - N/A% 29.94 in 9.0 mi Calm Calm - N/A   Clear
9:36 PM -27.4 °F - - N/A% 29.94 in 9.0 mi Calm Calm - N/A   Clear
9:56 PM -25.6 °F - - N/A% 29.94 in 10.0 mi Calm Calm - N/A   Clear
10:16 PM -25.6 °F - - N/A% 29.93 in 10.0 mi Calm Calm - N/A   Clear
10:36 PM -27.4 °F - - N/A% 29.93 in 10.0 mi Calm Calm - N/A   Clear
10:56 PM -25.6 °F - - N/A% 29.93 in 10.0 mi Calm Calm - N/A   Clear
11:16 PM -27.4 °F - - N/A% 29.92 in 9.0 mi Calm Calm - N/A   Clear
11:36 PM -27.4 °F - - N/A% 29.92 in 10.0 mi Calm Calm - N/A   Clear
11:56 PM -25.6 °F - - N/A% 29.92 in 10.0 mi Calm Calm - N/A   Clear